Zurück zum Katalog

STARLINK-35514

AktivKommunikationVLEO
NORAD 66535·PAYLOAD·🇺🇸 United States

Gestartet Nov 19, 2025 von Cape Canaveral Space Force Station

Loading…

Nächste Überflüge (nächste 24 Stunden)

TLE

AktuellSource: CelesTrak SupGP

Epoche: Sep 14, 2026, 21:33 UTC

1 66535C 25265V   26257.89840278  .00005870  00000+0  21260-3 0  2573
2 66535  43.0027 289.6983 0001593 270.2544 203.7661 15.27576485    16

Verfolge STARLINK-35514 in Echtzeit mit AllMySat

Download on the App Store